ANA221 RJFU-RJTT

Flight info

Callsign ANA221
Flight time 1h 23m
Altitude 35000
Route OOITA Y23 ARTIC Y71 XAC
Aircraft A321/M-SDE3FGHIRWY/LB1

Departure

Time 2026-04-25 23:16
Airport Nagasaki Airport (RJFU)

Arrival

Time 2026-04-26 00:39
Airport Tokyo Haneda International Airport (RJTT)
Time Latitude Longitude Altitude Speed Heading
2026-04-25 22:59 32.91297 129.92269 13 ft 0 kts 47°
2026-04-25 23:06 32.91287 129.92256 13 ft 3 kts 47°
2026-04-25 23:06 32.91273 129.92238 15 ft 3 kts 47°
2026-04-25 23:06 32.91259 129.92220 11 ft 3 kts 47°
2026-04-25 23:06 32.91246 129.92202 13 ft 3 kts 47°
2026-04-25 23:07 32.91232 129.92185 11 ft 3 kts 47°
2026-04-25 23:07 32.91220 129.92170 12 ft 3 kts 39°
2026-04-25 23:07 32.91205 129.92160 12 ft 3 kts 358°
2026-04-25 23:07 32.91187 129.92165 12 ft 3 kts 325°
2026-04-25 23:08 32.91178 129.92173 13 ft 1 kts 318°
2026-04-25 23:08 32.91176 129.92175 11 ft 0 kts 318°
2026-04-25 23:10 32.91205 129.92145 12 ft 13 kts 318°
2026-04-25 23:10 32.91294 129.92050 13 ft 19 kts 318°
2026-04-25 23:10 32.91383 129.91954 14 ft 16 kts 317°
2026-04-25 23:11 32.91466 129.91864 13 ft 16 kts 318°
2026-04-25 23:11 32.91548 129.91776 16 ft 15 kts 318°
2026-04-25 23:11 32.91627 129.91691 13 ft 16 kts 318°
2026-04-25 23:11 32.91713 129.91599 11 ft 17 kts 318°
2026-04-25 23:12 32.91799 129.91507 11 ft 16 kts 318°
2026-04-25 23:12 32.91884 129.91416 9 ft 17 kts 318°
2026-04-25 23:12 32.91970 129.91324 10 ft 16 kts 318°
2026-04-25 23:12 32.92049 129.91240 11 ft 15 kts 318°
2026-04-25 23:13 32.92124 129.91159 11 ft 15 kts 319°
2026-04-25 23:13 32.92216 129.91064 14 ft 21 kts 319°
2026-04-25 23:13 32.92325 129.90947 13 ft 22 kts 317°
2026-04-25 23:13 32.92439 129.90823 12 ft 22 kts 319°
2026-04-25 23:14 32.92559 129.90697 10 ft 24 kts 318°
2026-04-25 23:14 32.92683 129.90564 10 ft 24 kts 318°
2026-04-25 23:14 32.92776 129.90415 9 ft 22 kts 263°
2026-04-25 23:14 32.92681 129.90315 10 ft 19 kts 171°
2026-04-25 23:15 32.92579 129.90399 12 ft 19 kts 139°
2026-04-25 23:15 32.92348 129.90646 17 ft 79 kts 138°
2026-04-25 23:15 32.91734 129.91301 13 ft 155 kts 138°
2026-04-25 23:15 32.90797 129.92301 232 ft 197 kts 139°
2026-04-25 23:16 32.89733 129.93397 831 ft 207 kts 139°
2026-04-25 23:16 32.88616 129.94576 1115 ft 217 kts 137°
2026-04-25 23:16 32.87464 129.95822 1218 ft 235 kts 135°
2026-04-25 23:16 32.86201 129.97194 1655 ft 252 kts 136°
2026-04-25 23:17 32.84889 129.98611 2522 ft 255 kts 136°
2026-04-25 23:17 32.83572 130.00020 3537 ft 254 kts 137°
2026-04-25 23:17 32.82273 130.01404 4536 ft 254 kts 138°
2026-04-25 23:17 32.80953 130.02806 5443 ft 255 kts 139°
2026-04-25 23:18 32.79616 130.04224 6200 ft 260 kts 139°
2026-04-25 23:18 32.78253 130.05668 6905 ft 264 kts 139°
2026-04-25 23:18 32.76875 130.07131 7661 ft 267 kts 139°
2026-04-25 23:18 32.75482 130.08609 8482 ft 269 kts 140°
2026-04-25 23:19 32.74078 130.10102 9290 ft 272 kts 140°
2026-04-25 23:19 32.72659 130.11609 10034 ft 275 kts 141°
2026-04-25 23:19 32.71321 130.13317 10350 ft 296 kts 122°
2026-04-25 23:19 32.70742 130.15766 10482 ft 327 kts 93°
2026-04-25 23:20 32.71272 130.18486 10651 ft 354 kts 65°
2026-04-25 23:20 32.72730 130.20905 11094 ft 367 kts 49°
2026-04-25 23:20 32.74645 130.22940 11682 ft 373 kts 36°
2026-04-25 23:20 32.76946 130.24410 12291 ft 378 kts 22°
2026-04-25 23:21 32.79474 130.25323 12903 ft 382 kts 12°
2026-04-25 23:21 32.82048 130.26011 13513 ft 385 kts 11°
2026-04-25 23:21 32.84688 130.26661 14106 ft 390 kts
2026-04-25 23:21 32.87359 130.27296 14650 ft 393 kts
2026-04-25 23:22 32.90055 130.27935 15213 ft 396 kts
2026-04-25 23:22 32.92710 130.28895 15712 ft 403 kts 23°
2026-04-25 23:22 32.95121 130.30624 16220 ft 408 kts 39°
2026-04-25 23:23 32.98567 130.35974 17215 ft 413 kts 69°
2026-04-25 23:23 32.99405 130.39248 17692 ft 414 kts 81°
2026-04-25 23:23 33.00005 130.42626 18183 ft 418 kts 81°
2026-04-25 23:23 33.00609 130.46030 18624 ft 422 kts 81°
2026-04-25 23:24 33.01216 130.49459 19040 ft 425 kts 81°
2026-04-25 23:24 33.01620 130.51750 19322 ft 427 kts 81°
2026-04-25 23:24 33.02234 130.55230 19730 ft 431 kts 81°
2026-04-25 23:24 33.03051 130.59882 20267 ft 436 kts 81°
2026-04-25 23:25 33.03675 130.63429 20666 ft 439 kts 81°
2026-04-25 23:25 33.04307 130.67013 21061 ft 443 kts 81°
2026-04-25 23:25 33.04728 130.69398 21317 ft 446 kts 81°
2026-04-25 23:25 33.05368 130.73022 21728 ft 449 kts 81°
2026-04-25 23:26 33.06012 130.76683 22131 ft 453 kts 81°
2026-04-25 23:26 33.06657 130.80381 22532 ft 456 kts 81°
2026-04-25 23:26 33.07304 130.84089 23033 ft 457 kts 81°
2026-04-25 23:26 33.07954 130.87807 23456 ft 460 kts 81°
2026-04-25 23:27 33.08605 130.91555 23825 ft 463 kts 82°
2026-04-25 23:27 33.09261 130.95339 24026 ft 470 kts 82°
2026-04-25 23:27 33.09926 130.99185 24292 ft 474 kts 82°
2026-04-25 23:27 33.10595 131.03047 24584 ft 478 kts 82°
2026-04-25 23:28 33.11273 131.06953 24856 ft 482 kts 82°
2026-04-25 23:28 33.11952 131.10874 25125 ft 486 kts 82°
2026-04-25 23:28 33.12634 131.14837 25386 ft 490 kts 82°
2026-04-25 23:28 33.13321 131.18850 25660 ft 494 kts 82°
2026-04-25 23:29 33.14010 131.22885 25927 ft 498 kts 82°
2026-04-25 23:29 33.14704 131.26949 26197 ft 501 kts 82°
2026-04-25 23:29 33.15401 131.31036 26480 ft 505 kts 82°
2026-04-25 23:29 33.16101 131.35155 26723 ft 508 kts 83°
2026-04-25 23:30 33.16796 131.39261 26932 ft 513 kts 83°
2026-04-25 23:30 33.17515 131.43512 27163 ft 517 kts 83°
2026-04-25 23:30 33.18229 131.47726 27420 ft 520 kts 83°
2026-04-25 23:30 33.18941 131.51917 27662 ft 523 kts 83°
2026-04-25 23:31 33.19667 131.56204 27900 ft 527 kts 83°
2026-04-25 23:31 33.20391 131.60500 28124 ft 530 kts 83°
2026-04-25 23:31 33.21116 131.64828 28365 ft 533 kts 83°
2026-04-25 23:31 33.21894 131.69166 28597 ft 538 kts 79°
2026-04-25 23:32 33.23080 131.73430 28837 ft 545 kts 70°
2026-04-25 23:32 33.24531 131.77635 29065 ft 548 kts 70°
2026-04-25 23:32 33.25982 131.81859 29350 ft 551 kts 70°
2026-04-25 23:32 33.27431 131.86112 29553 ft 554 kts 71°
2026-04-25 23:33 33.28882 131.90392 29769 ft 557 kts 71°
2026-04-25 23:33 33.30336 131.94700 30023 ft 559 kts 71°
2026-04-25 23:33 33.31788 131.99013 30271 ft 560 kts 71°
2026-04-25 23:33 33.33227 132.03285 30544 ft 560 kts 71°
2026-04-25 23:34 33.34685 132.07606 30810 ft 561 kts 71°
2026-04-25 23:34 33.36143 132.11932 31105 ft 562 kts 71°
2026-04-25 23:34 33.37603 132.16271 31367 ft 563 kts 71°
2026-04-25 23:34 33.39052 132.20586 31592 ft 563 kts 71°
2026-04-25 23:35 33.40522 132.24977 31878 ft 564 kts 71°
2026-04-25 23:35 33.41981 132.29342 32146 ft 565 kts 71°
2026-04-25 23:35 33.43444 132.33713 32409 ft 566 kts 72°
2026-04-25 23:35 33.44905 132.38088 32689 ft 567 kts 72°
2026-04-25 23:36 33.46369 132.42472 32910 ft 568 kts 72°
2026-04-25 23:36 33.47837 132.46870 33194 ft 569 kts 72°
2026-04-25 23:36 33.49305 132.51275 33443 ft 569 kts 72°
2026-04-25 23:36 33.50771 132.55686 33699 ft 570 kts 72°
2026-04-25 23:37 33.52220 132.60051 33955 ft 571 kts 72°
2026-04-25 23:37 33.53689 132.64477 34192 ft 572 kts 72°
2026-04-25 23:37 33.55157 132.68909 34424 ft 572 kts 72°
2026-04-25 23:37 33.56619 132.73341 34663 ft 572 kts 72°
2026-04-25 23:38 33.58082 132.77776 34925 ft 572 kts 72°
2026-04-25 23:38 33.59543 132.82210 35072 ft 572 kts 72°
2026-04-25 23:38 33.60997 132.86636 35133 ft 568 kts 72°
2026-04-25 23:39 33.63892 132.95452 35109 ft 567 kts 73°
2026-04-25 23:39 33.66225 133.04432 35101 ft 563 kts 79°
2026-04-25 23:40 33.68402 133.13455 35130 ft 562 kts 79°
2026-04-25 23:40 33.70579 133.22488 35118 ft 563 kts 79°
2026-04-25 23:41 33.72746 133.31527 35107 ft 562 kts 79°
2026-04-25 23:41 33.74884 133.40521 35120 ft 563 kts 79°
2026-04-25 23:42 33.77041 133.49571 35125 ft 563 kts 79°
2026-04-25 23:42 33.79201 133.58645 35121 ft 564 kts 79°
2026-04-25 23:43 33.81346 133.67721 35117 ft 564 kts 79°
2026-04-25 23:43 33.83484 133.76809 35149 ft 564 kts 78°
2026-04-25 23:44 33.85613 133.85908 35114 ft 564 kts 78°
2026-04-25 23:44 33.87737 133.94995 35118 ft 564 kts 79°
2026-04-25 23:45 33.89840 134.04025 35109 ft 564 kts 78°
2026-04-25 23:45 33.91962 134.13140 35129 ft 565 kts 79°
2026-04-25 23:46 33.94081 134.22258 35137 ft 565 kts 79°
2026-04-25 23:46 33.96180 134.31377 35138 ft 564 kts 78°
2026-04-25 23:47 33.98265 134.40489 35142 ft 564 kts 78°
2026-04-25 23:47 34.00353 134.49607 35131 ft 564 kts 78°
2026-04-25 23:48 34.02438 134.58728 35149 ft 564 kts 78°
2026-04-25 23:48 34.04488 134.67796 35130 ft 564 kts 78°
2026-04-25 23:49 34.06554 134.76935 35135 ft 565 kts 78°
2026-04-25 23:49 34.08617 134.86080 35152 ft 565 kts 78°
2026-04-25 23:50 34.10677 134.95240 35148 ft 565 kts 78°
2026-04-25 23:50 34.12725 135.04411 35126 ft 566 kts 78°
2026-04-25 23:51 34.14764 135.13590 35133 ft 566 kts 78°
2026-04-25 23:51 34.16786 135.22711 35136 ft 566 kts 78°
2026-04-25 23:52 34.18824 135.31895 35137 ft 566 kts 78°
2026-04-25 23:52 34.20853 135.41081 35132 ft 566 kts 78°
2026-04-25 23:53 34.22875 135.50283 35147 ft 566 kts 79°
2026-04-25 23:53 34.24887 135.59484 35128 ft 565 kts 79°
2026-04-25 23:54 34.26880 135.68656 35158 ft 564 kts 79°
2026-04-25 23:54 34.28872 135.77836 35162 ft 563 kts 79°
2026-04-25 23:55 34.30846 135.86984 35181 ft 562 kts 79°
2026-04-25 23:55 34.32804 135.96126 35178 ft 561 kts 79°
2026-04-25 23:56 34.34748 136.05206 35188 ft 560 kts 79°
2026-04-25 23:56 34.36699 136.14331 35187 ft 559 kts 79°
2026-04-25 23:57 34.38642 136.23447 35185 ft 559 kts 79°
2026-04-25 23:57 34.40577 136.32570 35189 ft 560 kts 79°
2026-04-25 23:58 34.42506 136.41706 35197 ft 559 kts 79°
2026-04-25 23:58 34.44406 136.50779 35209 ft 559 kts 79°
2026-04-25 23:59 34.46315 136.59912 35200 ft 559 kts 79°
2026-04-25 23:59 34.48211 136.69043 35198 ft 559 kts 79°
2026-04-26 00:00 34.50102 136.78188 35201 ft 559 kts 79°
2026-04-26 00:00 34.51998 136.87348 35203 ft 560 kts 79°
2026-04-26 00:01 34.53668 136.96553 35199 ft 555 kts 89°
2026-04-26 00:01 34.53942 137.05809 35199 ft 548 kts 96°
2026-04-26 00:02 34.54007 137.14998 35200 ft 548 kts 96°
2026-04-26 00:02 34.54081 137.24245 35203 ft 548 kts 96°
2026-04-26 00:03 34.54139 137.33485 35202 ft 548 kts 96°
2026-04-26 00:03 34.54182 137.42725 35206 ft 548 kts 96°
2026-04-26 00:04 34.54222 137.51968 35192 ft 548 kts 96°
2026-04-26 00:04 34.54261 137.61211 35204 ft 547 kts 96°
2026-04-26 00:05 34.54291 137.70435 35217 ft 547 kts 96°
2026-04-26 00:05 34.54312 137.79654 35221 ft 546 kts 96°
2026-04-26 00:06 34.54322 137.88812 35220 ft 546 kts 96°
2026-04-26 00:06 34.54324 137.98029 35184 ft 546 kts 96°
2026-04-26 00:07 34.54329 138.07235 35209 ft 546 kts 96°
2026-04-26 00:07 34.54320 138.16447 35216 ft 546 kts 97°
2026-04-26 00:08 34.54286 138.25658 35217 ft 546 kts 97°
2026-04-26 00:08 34.54524 138.34888 35222 ft 553 kts 86°
2026-04-26 00:09 34.56552 138.43929 35222 ft 560 kts 67°
2026-04-26 00:09 34.59999 138.52343 35228 ft 561 kts 63°
2026-04-26 00:10 34.63508 138.60800 35233 ft 561 kts 63°
2026-04-26 00:10 34.66980 138.69285 35240 ft 561 kts 63°
2026-04-26 00:10 34.68715 138.73534 35056 ft 561 kts 63°
2026-04-26 00:11 34.70339 138.77835 34826 ft 559 kts 72°
2026-04-26 00:11 34.71319 138.82390 34593 ft 553 kts 86°
2026-04-26 00:11 34.71561 138.87009 34334 ft 545 kts 96°
2026-04-26 00:11 34.71546 138.91624 34094 ft 546 kts 96°
2026-04-26 00:12 34.71518 138.96241 33823 ft 546 kts 96°
2026-04-26 00:12 34.71485 139.00861 33558 ft 547 kts 96°
2026-04-26 00:12 34.71455 139.05494 33294 ft 548 kts 96°
2026-04-26 00:12 34.71428 139.10127 33028 ft 548 kts 96°
2026-04-26 00:13 34.71403 139.14777 32159 ft 553 kts 95°
2026-04-26 00:13 34.71380 139.19433 31716 ft 548 kts 95°
2026-04-26 00:13 34.71359 139.24009 31112 ft 546 kts 95°
2026-04-26 00:13 34.71334 139.28616 30546 ft 544 kts 95°
2026-04-26 00:14 34.71310 139.33208 29922 ft 544 kts 94°
2026-04-26 00:14 34.71613 139.37783 29376 ft 543 kts 84°
2026-04-26 00:14 34.72453 139.42264 28803 ft 543 kts 73°
2026-04-26 00:14 34.73302 139.45109 28403 ft 540 kts 66°
2026-04-26 00:15 34.74992 139.49150 27837 ft 534 kts 57°
2026-04-26 00:15 34.76894 139.53013 27265 ft 530 kts 57°
2026-04-26 00:15 34.78778 139.56847 26773 ft 524 kts 57°
2026-04-26 00:15 34.80631 139.60636 26220 ft 520 kts 58°
2026-04-26 00:16 34.82463 139.64397 25829 ft 512 kts 58°
2026-04-26 00:16 34.84261 139.68098 25192 ft 504 kts 58°
2026-04-26 00:16 34.86024 139.71737 24590 ft 494 kts 58°
2026-04-26 00:16 34.87754 139.75308 24049 ft 484 kts 58°
2026-04-26 00:17 34.89442 139.78793 23531 ft 471 kts 58°
2026-04-26 00:17 34.91229 139.82053 23051 ft 451 kts 45°
2026-04-26 00:17 34.93446 139.84549 22666 ft 420 kts 30°
2026-04-26 00:17 34.95914 139.86223 22076 ft 394 kts 14°
2026-04-26 00:18 34.98465 139.87086 21582 ft 368 kts 360°
2026-04-26 00:18 35.00979 139.87237 21328 ft 358 kts 348°
2026-04-26 00:18 35.03413 139.86806 20704 ft 346 kts 337°
2026-04-26 00:18 35.05717 139.86062 20284 ft 342 kts 338°
2026-04-26 00:19 35.08018 139.85325 19864 ft 341 kts 338°
2026-04-26 00:19 35.10278 139.84605 19437 ft 339 kts 338°
2026-04-26 00:19 35.12559 139.83880 19015 ft 338 kts 339°
2026-04-26 00:19 35.14834 139.83162 18578 ft 336 kts 339°
2026-04-26 00:20 35.17089 139.82456 18107 ft 331 kts 340°
2026-04-26 00:20 35.19291 139.81769 17611 ft 326 kts 340°
2026-04-26 00:20 35.21488 139.81074 17111 ft 326 kts 340°
2026-04-26 00:20 35.23678 139.80377 16634 ft 324 kts 340°
2026-04-26 00:21 35.25858 139.79681 16160 ft 323 kts 340°
2026-04-26 00:21 35.28039 139.79046 15697 ft 323 kts 347°
2026-04-26 00:21 35.30295 139.78957 15230 ft 327 kts
2026-04-26 00:21 35.32517 139.79551 14750 ft 329 kts 18°
2026-04-26 00:22 35.34561 139.80796 14282 ft 329 kts 33°
2026-04-26 00:22 35.36357 139.82517 13978 ft 327 kts 38°
2026-04-26 00:22 35.38127 139.84284 13885 ft 328 kts 38°
2026-04-26 00:22 35.39905 139.86046 13748 ft 329 kts 38°
2026-04-26 00:23 35.41670 139.87788 13569 ft 321 kts 37°
2026-04-26 00:23 35.43378 139.89475 13440 ft 311 kts 38°
2026-04-26 00:23 35.44921 139.91270 13306 ft 301 kts 44°
2026-04-26 00:23 35.46369 139.93042 13059 ft 296 kts 44°
2026-04-26 00:24 35.47822 139.94817 12732 ft 294 kts 44°
2026-04-26 00:24 35.49268 139.96581 12403 ft 292 kts 44°
2026-04-26 00:24 35.50700 139.98328 12081 ft 289 kts 44°
2026-04-26 00:24 35.52246 139.99867 11760 ft 284 kts 23°
2026-04-26 00:25 35.54110 140.00409 11428 ft 273 kts 354°
2026-04-26 00:25 35.55889 139.99848 11073 ft 260 kts 328°
2026-04-26 00:25 35.57249 139.98456 10613 ft 254 kts 307°
2026-04-26 00:25 35.58465 139.96862 10161 ft 256 kts 315°
2026-04-26 00:26 35.59825 139.95448 9706 ft 256 kts 318°
2026-04-26 00:26 35.61217 139.94104 9270 ft 255 kts 320°
2026-04-26 00:26 35.62616 139.92774 8844 ft 254 kts 320°
2026-04-26 00:26 35.64005 139.91442 8417 ft 252 kts 320°
2026-04-26 00:27 35.65378 139.90110 7995 ft 251 kts 320°
2026-04-26 00:27 35.66724 139.88794 7623 ft 246 kts 320°
2026-04-26 00:27 35.68062 139.87475 7060 ft 245 kts 320°
2026-04-26 00:27 35.69392 139.86159 6415 ft 247 kts 320°
2026-04-26 00:28 35.70716 139.84843 5892 ft 250 kts 320°
2026-04-26 00:28 35.72067 139.83495 5483 ft 248 kts 320°
2026-04-26 00:28 35.73387 139.82178 5267 ft 239 kts 320°
2026-04-26 00:28 35.74649 139.80917 5091 ft 229 kts 320°
2026-04-26 00:29 35.75863 139.79704 4998 ft 220 kts 320°
2026-04-26 00:29 35.77002 139.78567 4965 ft 200 kts 320°
2026-04-26 00:29 35.78032 139.77538 4915 ft 182 kts 320°
2026-04-26 00:29 35.78988 139.76581 4865 ft 173 kts 320°
2026-04-26 00:30 35.79924 139.75645 4824 ft 172 kts 320°
2026-04-26 00:30 35.80842 139.74727 4770 ft 172 kts 320°
2026-04-26 00:30 35.81667 139.73673 4720 ft 172 kts 302°
2026-04-26 00:30 35.82107 139.72315 4670 ft 171 kts 279°
2026-04-26 00:31 35.82151 139.70859 4619 ft 170 kts 267°
2026-04-26 00:31 35.82142 139.69399 4574 ft 170 kts 268°
2026-04-26 00:31 35.82137 139.67941 4513 ft 170 kts 268°
2026-04-26 00:31 35.82133 139.66483 4231 ft 168 kts 268°
2026-04-26 00:32 35.81972 139.65093 4073 ft 163 kts 245°
2026-04-26 00:32 35.81298 139.63994 4020 ft 161 kts 219°
2026-04-26 00:32 35.79266 139.63063 4013 ft 159 kts 178°
2026-04-26 00:33 35.78182 139.63314 4015 ft 160 kts 158°
2026-04-26 00:33 35.77204 139.63961 4018 ft 159 kts 148°
2026-04-26 00:33 35.76246 139.64646 4014 ft 159 kts 149°
2026-04-26 00:33 35.75293 139.65327 4005 ft 157 kts 149°
2026-04-26 00:34 35.74349 139.66002 3957 ft 158 kts 149°
2026-04-26 00:34 35.73406 139.66675 3862 ft 151 kts 148°
2026-04-26 00:34 35.72515 139.67311 3691 ft 146 kts 148°
2026-04-26 00:34 35.71641 139.67935 3519 ft 145 kts 148°
2026-04-26 00:35 35.70769 139.68557 3331 ft 144 kts 148°
2026-04-26 00:35 35.69904 139.69174 3136 ft 144 kts 148°
2026-04-26 00:35 35.69033 139.69795 2942 ft 145 kts 149°
2026-04-26 00:35 35.68165 139.70414 2760 ft 145 kts 149°
2026-04-26 00:36 35.67294 139.71034 2543 ft 144 kts 149°
2026-04-26 00:36 35.66440 139.71644 2351 ft 144 kts 148°
2026-04-26 00:36 35.65576 139.72258 2159 ft 143 kts 148°
2026-04-26 00:36 35.64722 139.72867 1967 ft 142 kts 149°
2026-04-26 00:37 35.63864 139.73478 1759 ft 141 kts 148°
2026-04-26 00:37 35.63007 139.74089 1574 ft 142 kts 149°
2026-04-26 00:37 35.62150 139.74699 1379 ft 142 kts 149°
2026-04-26 00:37 35.61297 139.75305 1186 ft 142 kts 147°
2026-04-26 00:38 35.60460 139.75901 1007 ft 140 kts 148°
2026-04-26 00:38 35.59608 139.76505 789 ft 141 kts 148°
2026-04-26 00:38 35.58740 139.77117 595 ft 144 kts 147°
2026-04-26 00:38 35.57868 139.77737 409 ft 145 kts 146°
2026-04-26 00:39 35.56997 139.78368 201 ft 145 kts 147°
2026-04-26 00:39 35.56128 139.78974 47 ft 144 kts 147°
2026-04-26 00:39 35.55348 139.79539 27 ft 101 kts 142°
2026-04-26 00:39 35.55009 139.79793 24 ft 14 kts 152°
2026-04-26 00:40 35.54924 139.79843 26 ft 15 kts 155°
2026-04-26 00:40 35.54827 139.79894 24 ft 16 kts 160°
2026-04-26 00:40 35.54719 139.79923 24 ft 17 kts 173°
2026-04-26 00:40 35.54606 139.79910 25 ft 12 kts 214°
2026-04-26 00:41 35.54594 139.79895 23 ft 0 kts 229°
2026-04-26 00:41 35.54579 139.79872 24 ft 9 kts 237°
2026-04-26 00:42 35.54546 139.79807 24 ft 9 kts 238°
2026-04-26 00:42 35.54544 139.79744 25 ft 7 kts 287°
2026-04-26 00:42 35.54582 139.79692 24 ft 13 kts 327°
2026-04-26 00:42 35.54693 139.79619 25 ft 20 kts 332°
2026-04-26 00:43 35.54810 139.79534 25 ft 19 kts 329°
2026-04-26 00:43 35.54926 139.79452 24 ft 19 kts 330°
2026-04-26 00:43 35.55040 139.79370 25 ft 19 kts 326°
2026-04-26 00:43 35.55048 139.79241 24 ft 12 kts 242°
2026-04-26 00:44 35.55013 139.79211 24 ft 4 kts 171°
2026-04-26 00:44 35.54990 139.79223 24 ft 3 kts 148°
2026-04-26 00:44 35.54977 139.79236 24 ft 0 kts 140°